DateTimeUTC,F1_A11,F1_S11,BsB_S11,BsG_S11,BsR_S11,BbsB_S11,BbsG_S11,BbsR_S11,BaB_A11,BaG_A11,BaR_A11,Tu_S11,T_S11,Uu_S11,U_S11,P_S11,T1_A11
2021-03-31T06:00:00Z,00000200,21000000,,,,,,,0000.07,0000.27,0000.53,16.1,23.3,01.2,00.8,0648.6,30.8
2021-03-31T06:01:00Z,00000200,21000000,,,,,,,-000.03,0000.55,-000.03,16.2,23.3,01.2,00.8,0648.5,30.8
2021-03-31T06:02:00Z,00000200,21000000,,,,,,,0000.07,-000.32,-000.22,16.2,23.3,01.2,00.8,0648.5,30.9
2021-03-31T06:03:00Z,00000200,61000000,,,,,,,0000.07,0000.39,0000.06,16.2,23.3,01.2,00.8,0648.5,30.9
2021-03-31T06:04:00Z,00000200,41000000,0000.98,0000.28,0000.34,0000.79,0000.22,0000.10,-000.09,0000.00,0000.08,16.5,23.3,01.3,00.9,0649.3,30.9
2021-03-31T06:05:00Z,00000200,01000000,0001.15,0000.49,0000.35,0000.09,0000.14,0000.15,0000.48,0000.16,0000.69,16.6,23.3,01.4,00.9,0649.5,30.9
2021-03-31T06:06:00Z,00000200,01000000,0000.88,0000.97,0000.48,0000.92,0000.02,0000.19,0001.56,0001.70,0000.58,16.7,23.2,01.4,00.9,0649.5,30.9
2021-03-31T06:07:00Z,00000200,01000000,0001.00,0000.53,0000.18,-000.04,0000.14,-000.04,-000.43,-000.60,-000.25,16.7,23.2,01.7,01.1,0649.4,30.9
2021-03-31T06:08:00Z,00000200,01000000,0000.43,0000.58,0000.61,0000.20,0000.16,0000.02,0000.17,0000.46,0000.47,16.7,23.2,01.4,00.9,0649.5,30.9
2021-03-31T06:09:00Z,00000200,01000000,0000.75,0000.75,0000.19,0000.53,0000.20,0000.03,0000.13,0000.08,0000.29,16.6,23.2,01.5,01.0,0649.6,30.9
2021-03-31T06:10:00Z,00000200,01000000,0001.11,0000.42,0000.33,0000.75,0000.31,0000.07,0001.06,0000.65,0000.45,16.6,23.2,01.5,01.0,0649.6,30.9
2021-03-31T06:11:00Z,00000200,01000000,0001.37,0000.48,0000.52,0000.15,0000.07,0000.13,0000.39,0000.36,0000.27,16.6,23.2,01.7,01.1,0649.6,30.9
2021-03-31T06:12:00Z,00000200,01000000,0001.23,0000.52,0000.47,0000.79,0000.11,0000.30,-000.21,0000.20,0000.47,16.7,23.2,01.5,01.0,0649.5,30.9
2021-03-31T06:13:00Z,00000200,01000000,0000.10,0000.66,0000.62,0000.38,0000.24,0000.23,0000.47,0000.69,0000.14,16.7,23.2,01.4,01.0,0649.6,30.9
2021-03-31T06:14:00Z,00000200,01000000,0000.62,0000.70,0000.57,0000.11,0000.15,0000.18,-000.04,-000.23,0000.28,16.7,23.3,01.6,01.1,0649.5,30.9
2021-03-31T06:15:00Z,00000200,01000000,0000.66,0000.25,0000.40,0000.80,0000.28,0000.21,-000.29,-000.28,-000.50,16.8,23.3,01.4,00.9,0649.5,30.9
2021-03-31T06:16:00Z,00000200,01000000,0001.01,0000.46,0000.28,0000.31,0000.10,0000.22,0000.16,0000.38,0000.34,16.8,23.3,01.2,00.8,0649.5,30.9
2021-03-31T06:17:00Z,00000200,01000000,0000.91,0000.48,0000.35,0000.14,0000.10,0000.23,0000.40,-000.01,0000.13,16.7,23.3,01.3,00.8,0649.5,30.9
2021-03-31T06:18:00Z,00000200,01000000,0000.67,0000.61,0000.10,0000.05,0000.37,-000.10,-000.47,-000.18,-000.54,16.7,23.3,01.1,00.8,0649.7,30.9
2021-03-31T06:19:00Z,00000200,01000000,0000.45,0000.34,0000.16,0000.30,0000.25,0000.20,0000.05,0000.14,0000.53,16.6,23.2,01.1,00.8,0649.7,30.9
2021-03-31T06:20:00Z,00000200,01000000,0001.32,0000.69,0000.35,0000.50,0000.21,0000.29,0000.24,-000.38,-000.09,16.6,23.2,01.1,00.8,0649.7,30.9
2021-03-31T06:21:00Z,00000200,01000000,0001.43,0000.24,-000.03,0000.22,0000.19,-000.06,0000.37,0000.49,0000.40,16.6,23.2,01.0,00.7,0649.7,30.9
2021-03-31T06:22:00Z,00000200,01000000,0000.88,0000.49,0000.12,0000.55,0000.23,0000.06,0000.04,0000.28,-000.04,16.5,23.2,01.1,00.7,0649.7,30.9
2021-03-31T06:23:00Z,00000200,01000000,0001.49,0000.58,0000.12,0000.49,0000.04,0000.13,0000.35,0000.37,0000.18,16.5,23.2,01.1,00.7,0649.7,30.9
2021-03-31T06:24:00Z,00000200,01000000,0001.04,0000.64,0000.21,0000.97,0000.19,0000.18,0000.59,0000.29,0000.51,16.5,23.2,01.2,00.8,0649.7,30.8
2021-03-31T06:25:00Z,00000200,01000000,0000.84,0000.45,0000.07,0000.56,0000.33,0000.14,0000.46,0000.76,0000.51,16.5,23.2,01.1,00.7,0649.7,30.8
2021-03-31T06:26:00Z,00000200,01000000,0001.21,0000.67,0000.59,0000.24,0000.30,0000.06,0000.83,0000.41,0000.21,16.5,23.2,01.2,00.8,0649.6,30.8
2021-03-31T06:27:00Z,00000200,01000000,0001.01,0000.71,0000.36,0000.14,-000.05,0000.18,0000.39,-000.15,0000.32,16.5,23.1,01.3,00.9,0649.8,30.8
2021-03-31T06:28:00Z,00000200,01000000,0001.04,0000.60,0000.30,0000.19,0000.17,-000.09,0000.20,0000.89,0000.13,16.6,23.2,01.2,00.8,0649.7,30.8
2021-03-31T06:29:00Z,00000200,01000000,0000.92,0000.42,0000.25,0000.33,0000.16,0000.14,0000.28,-000.07,0000.42,16.6,23.2,01.2,00.8,0649.8,30.9
2021-03-31T06:30:00Z,00000200,01000000,0000.46,0000.41,0000.30,0000.44,0000.07,0000.19,0000.18,0000.70,0000.09,16.7,23.2,01.2,00.8,0649.7,30.9
2021-03-31T06:31:00Z,00000200,01000000,0001.18,0000.66,0000.40,0000.41,-000.01,0000.20,0001.43,0001.46,0001.03,16.6,23.2,01.3,00.9,0649.8,30.9
2021-03-31T06:32:00Z,00000200,01000000,0001.57,0000.41,0000.37,-000.19,0000.24,0000.35,0000.17,-000.56,0000.10,16.6,23.2,01.3,00.9,0649.6,30.9
2021-03-31T06:33:00Z,00000200,01000000,0000.82,0000.41,0000.28,0000.26,0000.11,0000.28,-000.56,-000.33,-000.01,16.6,23.2,01.5,01.0,0649.6,30.9
2021-03-31T06:34:00Z,00000200,01000000,0000.62,0000.20,0000.32,-000.01,0000.24,0000.23,0000.70,0000.54,0000.06,16.5,23.2,01.2,00.8,0649.7,30.9
2021-03-31T06:35:00Z,00000200,01000000,0000.99,0000.68,-000.02,0000.13,0000.00,0000.13,-000.12,-000.06,-000.16,16.5,23.2,01.3,00.9,0649.6,30.8
2021-03-31T06:36:00Z,00000200,01000000,0001.11,0000.77,0000.23,0000.10,0000.23,0000.28,-000.11,0000.14,0000.29,16.5,23.2,01.3,00.9,0649.6,30.8
2021-03-31T06:37:00Z,00000200,01000000,0000.36,0000.55,0000.39,0000.45,0000.09,0000.17,0000.36,0000.16,0000.12,16.4,23.1,01.2,00.8,0649.7,30.8
2021-03-31T06:38:00Z,00000200,01000000,0000.75,0000.80,0000.06,0000.28,0000.06,-000.11,0000.18,0000.05,0000.13,16.4,23.1,01.2,00.8,0649.7,30.8
2021-03-31T06:39:00Z,00000200,01000000,0001.02,0000.32,0000.51,0000.34,-000.13,0000.30,0000.07,0000.43,0000.38,16.4,23.1,01.2,00.8,0649.7,30.8
2021-03-31T06:40:00Z,00000200,01000000,0000.93,0000.54,0000.40,0000.38,0000.14,0000.19,0000.53,0000.13,-000.11,16.4,23.1,01.3,00.8,0649.5,30.8
2021-03-31T06:41:00Z,00000200,01000000,0001.30,0000.56,0000.04,-000.05,0000.13,-000.08,0000.76,0000.43,0000.77,16.4,23.1,01.3,00.8,0649.6,30.8
2021-03-31T06:42:00Z,00000200,01000000,0001.20,0000.44,0000.06,0000.59,0000.28,0000.08,-000.28,0000.27,-000.14,16.5,23.1,01.3,00.9,0649.6,30.8
2021-03-31T06:43:00Z,00000200,01000000,0000.82,0000.22,0000.61,0000.54,0000.08,0000.27,0000.43,0000.56,0000.24,16.5,23.1,01.3,00.8,0649.6,30.8
2021-03-31T06:44:00Z,00000200,01000000,0000.85,0000.57,0000.40,0000.52,0000.09,0000.13,0000.12,-000.29,0000.51,16.5,23.1,01.3,00.8,0649.5,30.9
2021-03-31T06:45:00Z,00000200,01000000,0001.04,0000.48,0000.34,0000.09,-000.01,-000.01,0000.03,0000.61,-000.02,16.5,23.1,01.1,00.8,0649.4,30.9
2021-03-31T06:46:00Z,00000200,01000000,0000.69,0000.26,0000.17,0000.59,0000.27,0000.03,0000.11,-000.21,0000.07,16.5,23.1,01.1,00.7,0649.4,30.9
2021-03-31T06:47:00Z,00000200,01000000,0000.96,0000.50,0000.14,0000.33,0000.00,0000.28,-000.06,0000.09,0000.01,16.5,23.1,01.2,00.8,0649.4,30.9
2021-03-31T06:48:00Z,00000200,01000000,0000.99,0000.82,0000.33,-000.10,0000.45,0000.20,0000.24,0000.31,-000.18,16.5,23.1,01.0,00.7,0649.3,30.9
2021-03-31T06:49:00Z,00000200,01000000,0000.87,0000.56,0000.39,0000.54,0000.24,0000.14,0000.56,0000.49,0000.71,16.4,23.1,01.2,00.8,0649.3,30.8
2021-03-31T06:50:00Z,00000200,01000000,0000.84,0000.51,0000.23,0000.49,0000.33,-000.11,0000.76,0000.48,-000.01,16.4,23.1,01.2,00.8,0649.4,30.8
2021-03-31T06:51:00Z,00000200,01000000,0000.38,0000.62,0000.08,0000.62,0000.34,0000.09,0001.42,0001.27,0001.34,16.4,23.0,01.3,00.9,0649.3,30.8
2021-03-31T06:52:00Z,00000200,01000000,0000.68,0000.52,0000.35,0000.71,0000.10,0000.33,-001.18,-001.07,-000.81,16.4,23.0,01.4,00.9,0649.4,30.8
2021-03-31T06:53:00Z,00000200,01000000,0000.97,0000.25,0000.16,0000.00,0000.10,0000.16,-000.02,0000.25,0000.19,16.3,23.0,01.4,00.9,0649.3,30.8
2021-03-31T06:54:00Z,00000200,01000000,0000.91,0000.55,0000.25,0000.56,0000.14,0000.18,0001.46,0000.79,0000.95,16.3,23.0,01.2,00.8,0649.3,30.8
2021-03-31T06:55:00Z,00000200,01000000,0001.52,0000.86,0000.54,0000.47,0000.28,0000.26,0000.22,0000.01,0000.30,16.3,23.0,01.4,00.9,0649.3,30.8
2021-03-31T06:56:00Z,00000200,01000000,0001.10,0000.38,0000.26,0000.58,0000.09,0000.22,-000.00,0000.49,0000.10,16.3,23.0,01.3,00.9,0649.4,30.8
2021-03-31T06:57:00Z,00000200,41000000,,,,,,,0000.39,0000.19,0000.35,16.4,23.0,01.2,00.8,0649.5,30.8
2021-03-31T06:58:00Z,00000200,61000000,,,,,,,-000.23,0000.05,-000.36,16.2,23.2,01.2,00.8,0648.5,30.8
2021-03-31T06:59:00Z,00000200,21000000,,,,,,,-000.30,-000.19,-000.02,16.2,23.3,01.2,00.8,0648.4,30.8
